Home   Weather   Herten   Past weeks

Flag for Germany Past Weather in Herten, North Rhine-Westphalia, Germany — Yesterday and Last 2 Weeks

Now
64 °F

Sunny.


Feels Like: 64 °F
Forecast: 63 / 72 °F
Wind: 8 mph from Southwest

Location: Dortmund / Wickede

Current Time: Jul 28, 2017 at 9:06:11 pm

Latest Report: Jul 28, 2017 at 8:20 pm


Visibility: 10 mi

Pressure: 29.92 "Hg

Humidity: 56%

Dew Point: 48 °F

Location of HertenLocation

Past Weather in Herten — Graph

°F

Herten Temperature Yesterday

Maximum temperature yesterday: 68 °F (at 11:50 am)
Minimum temperature yesterday: 54 °F (at 9:50 pm)
Average temperature yesterday: 65 °F

High & Low Weather Summary for the Past Weeks

 TemperatureHumidityPressure
High90 °F (Jul 19, 2:50 pm)100% (Jul 24, 11:50 am)30.21 "Hg (Jul 24, 11:50 am)
Low39 °F (Jul 24, 11:50 am)29% (Jul 19, 2:50 pm)29.68 "Hg (Jul 25, 6:50 pm)
Average65 °F65%29.93 "Hg
* Reported Jul 13 7:20 pm — Jul 28 7:20 pm, Herten. Weather by CustomWeather, © 2017

Note: Actual official high and low records may vary slightly from our data, if they occured in-between our weather recording intervals... More about our weather records

Advertising

Herten Weather History for the Previous 24 Hours

Scroll right to see more
 ConditionsComfort  
Time TempWeatherWind HumidityBarometerVisibility
7:20 pm
Fri, Jul 28
66 °FSunny.6 mph56%29.92 "Hg10 mi
6:50 pm66 °FSunny.9 mph52%29.92 "Hg10 mi
6:20 pm66 °FSunny.8 mph52%29.92 "Hg10 mi
5:50 pm66 °FPassing clouds.10 mph52%29.92 "HgN/A
5:20 pm66 °FPassing clouds.12 mph52%29.92 "HgN/A
4:50 pm66 °FPassing clouds.14 mph52%29.92 "HgN/A
4:20 pm66 °FPassing clouds.13 mph52%29.92 "HgN/A
3:50 pm66 °FPartly sunny.14 mph52%29.89 "HgN/A
3:20 pm66 °FScattered clouds.16 mph52%29.89 "HgN/A
2:50 pm68 °FScattered clouds.17 mph49%29.89 "HgN/A
2:20 pm64 °FPartly sunny.17 mph52%29.89 "HgN/A
1:50 pm64 °FPartly sunny.17 mph56%29.89 "HgN/A
1:20 pm68 °FPartly sunny.17 mph53%29.89 "HgN/A
12:50 pm66 °FSunny.18 mph52%29.89 "Hg10 mi
12:20 pm64 °FScattered clouds.15 mph56%29.86 "HgN/A
11:50 am63 °FScattered clouds.13 mph64%29.86 "HgN/A
11:20 am63 °FPartly sunny.15 mph68%29.86 "HgN/A
10:50 am63 °FPartly sunny.15 mph68%29.86 "HgN/A
10:20 am61 °FPartly sunny.14 mph68%29.86 "HgN/A
9:20 am59 °FPartly sunny.12 mph72%29.86 "HgN/A
8:50 am59 °FPartly sunny.14 mph72%29.83 "HgN/A
8:20 am57 °FPartly sunny.13 mph77%29.83 "HgN/A
7:50 am57 °FPartly sunny.15 mph77%29.83 "HgN/A
7:20 am55 °FScattered clouds.14 mph82%29.83 "HgN/A
6:50 am55 °FPartly sunny.12 mph77%29.83 "HgN/A
6:20 am55 °FPartly sunny.13 mph77%29.83 "HgN/A
5:50 am54 °FSunny.10 mph82%29.80 "Hg10 mi
5:20 am54 °FClear.10 mph82%29.80 "Hg10 mi
9:50 pm
Thu, Jul 27
54 °FClear.2 mph77%29.74 "Hg10 mi
9:20 pm61 °FSunny.1 mph59%29.74 "Hg10 mi
Weather by CustomWeather, © 2017

See weather overviewHow to use our weather pages